RH
17 16 17 13 14 11 14 14 16 18 19 16 19 20 22 27 27 26 25 26 29 32 38 42 48 47 46 52 52 53 50 46 44 39 39 41 46 48 48 49 18 16 16 15
15 21 15 13 11 12 12 13 19 21 21 19 19 20 21 26 27 26 25 25 28 31 37 42 45 48 50 50 52 48 48 50 45 41 33 15 21 22 24 12 17 9 10 11
17 16 15 13 14 14 14 13 18 17 22 20 19 20 23 24 26 28 29 26 26 26 28 36 40 44 48 48 52 51 52 54 52 53 41 37 35 34 38 40 33 8 8 8
16 15 14 14 15 12 15 14 18 20 17 14 21 13 20 20 24 26 27 28 27 26 27 31 36 40 47 49 52 54 54 54 48 43 47 52 40 38 47 44 37 32 8 7
22 15 14 14 15 13 18 16 18 17 17 18 23 19 20 18 22 22 25 28 28 26 26 29 34 36 41 47 51 54 55 54 52 32 44 51 50 46 47 48 54 49 28 9
19 19 16 16 16 14 17 20 19 18 17 19 18 19 12 20 19 18 22 26 28 26 27 30 33 37 40 48 54 55 56 52 52 42 40 42 44 49 54 55 54 50 50 44
16 19 18 18 20 20 18 20 32 26 30 22 20 23 13 17 20 18 20 25 28 26 28 31 31 35 37 40 46 51 51 49 52 51 46 43 35 35 49 55 51 55 53 51
19 24 18 20 21 17 17 19 44 32 16 16 24 15 26 19 21 22 22 23 28 27 29 31 31 33 33 37 40 44 47 46 45 51 56 57 38 54 53 55 56 55 55 55
22 23 19 23 22 22 27 25 31 32 37 22 10 15 20 18 19 22 22 24 28 27 29 30 31 33 36 38 41 50 43 47 48 51 55 54 54 48 47 40 42 59 52 56
22 26 19 22 23 31 31 29 37 54 95 55 13 13 12 17 19 22 23 26 28 27 28 29 31 35 42 44 46 51 50 50 50 52 52 58 62 65 69 69 54 50 50 57
23 34 25 21 23 23 35 33 37 38 31 32 14 10 22 20 18 22 24 27 28 28 28 31 37 44 45 47 48 50 44 45 48 42 36 34 35 41 62 74 76 78 81 73
28 33 26 18 24 27 28 28 27 77 81 37 29 15 21 23 24 25 25 28 28 28 36 39 43 45 45 46 46 49 46 45 38 40 41 38 36 36 47 61 71 67 72 68
27 36 54 26 29 32 33 35 98 100 34 35 38 17 22 25 26 27 28 31 35 35 38 43 46 47 50 53 53 54 46 44 40 44 50 50 43 45 56 61 62 64 70 75
25 32 68 38 66 52 98 77 96 100 65 27 22 14 20 22 26 29 31 33 35 38 42 47 54 59 57 46 49 55 52 45 44 52 58 62 52 48 52 51 49 49 55 66
34 74 62 56 34 28 26 38 44 72 48 26 12 15 13 21 24 30 35 37 39 43 49 54 62 66 56 54 53 49 46 39 35 42 42 45 36 29 35 33 25 30 36 56
39 54 39 52 45 29 31 26 33 30 23 21 18 18 18 21 28 35 36 37 42 50 56 62 65 59 49 43 41 43 45 43 44 45 45 47 50 49 48 51 51 51 53 56
35 55 44 40 34 31 44 29 30 28 27 26 28 20 22 27 31 34 38 41 49 57 60 58 50 44 43 44 46 47 47 47 50 48 44 44 46 49 51 52 54 56 60 63
38 42 52 60 34 57 25 24 22 28 28 30 28 27 26 29 34 42 45 53 60 59 53 47 46 46 46 44 46 49 49 47 47 45 43 43 45 49 51 56 60 66 68 70
35 39 78 79 37 22 15 26 29 30 20 24 28 26 32 42 50 55 56 61 60 56 53 55 56 55 52 48 46 46 44 40 38 38 39 43 51 55 58 61 67 69 69 69
36 33 34 52 61 56 28 25 30 26 24 30 28 33 39 48 40 40 66 64 59 56 61 60 57 54 52 51 50 48 38 32 33 40 48 54 62 65 65 66 66 66 64 62
45 46 80 54 43 23 23 25 29 28 43 38 35 39 45 41 46 62 69 60 57 60 65 62 58 55 51 54 52 43 31 31 40 53 60 65 66 64 61 61 59 58 58 60
46 63 69 55 78 51 30 29 28 42 48 44 42 46 49 65 71 70 60 59 64 64 67 57 54 53 56 56 51 36 34 41 53 63 66 62 62 60 53 53 57 59 58 59
48 41 49 46 43 49 47 46 50 51 48 48 50 53 60 64 62 58 58 63 65 62 52 52 54 54 53 51 46 41 45 54 61 67 64 62 61 57 55 57 57 57 59 67
44 48 53 49 46 44 53 55 53 51 52 57 59 58 57 54 55 58 61 64 60 55 56 57 55 49 43 45 46 49 55 60 67 67 65 65 62 64 63 62 63 65 72 78
42 45 43 49 52 55 55 54 55 57 59 58 56 54 55 58 60 61 62 57 56 60 58 53 44 41 44 50 51 55 57 64 70 71 69 65 63 66 65 67 72 72 78 86
45 44 44 36 44 43 52 57 57 56 55 58 59 62 62 60 58 56 57 62 61 56 46 43 47 50 52 58 58 60 62 70 77 75 67 66 69 70 63 63 69 72 80 87
Wind_Speed
6 13 13 6 1 2 9 12 13 9 5 2 4 14 15 14 11 10 9 8 7 5 4 4 3 5 6 9 10 12 13 14 12 11 10 10 11 13 13 15 17 18 18 19
10 11 6 5 8 12 14 14 12 8 4 1 6 12 12 14 12 11 10 10 8 6 4 3 2 2 4 6 8 9 10 12 12 11 11 12 11 12 13 15 17 19 19 20
6 10 7 10 13 14 7 8 9 7 8 3 8 10 14 15 14 12 11 9 8 7 5 3 2 1 2 3 4 6 8 9 11 11 11 10 11 10 12 13 14 19 20 21
8 3 9 12 9 3 8 7 7 11 8 1 5 1 17 18 17 19 17 15 12 9 6 4 3 2 0 0 2 3 4 6 8 13 11 14 13 13 13 13 14 15 19 20
4 7 12 12 5 2 6 8 8 7 3 4 8 5 8 14 18 19 22 19 16 12 9 5 4 3 2 3 2 1 2 4 6 10 10 10 11 12 12 14 15 16 17 18
7 3 3 3 5 2 17 11 8 5 3 4 1 4 9 8 15 14 22 21 19 15 12 8 7 5 3 3 3 3 2 3 4 7 8 9 11 11 12 13 14 15 15 16
5 4 3 2 10 8 6 11 3 4 4 1 3 5 4 6 6 7 19 23 22 18 15 11 8 6 4 3 3 4 4 5 6 8 9 11 12 13 13 12 13 15 14 14
7 6 5 1 3 3 11 5 3 4 3 3 5 6 3 4 4 7 9 19 22 20 17 13 11 8 5 3 3 4 6 8 10 12 14 15 17 15 14 15 15 16 15 15
6 4 3 2 1 3 6 6 3 2 2 3 4 3 6 6 5 6 11 17 24 22 19 15 11 9 7 6 6 8 11 13 14 16 18 20 21 22 22 23 22 20 20 19
5 5 2 4 2 5 2 5 2 1 3 4 4 5 3 7 7 8 11 17 22 21 17 15 11 9 8 8 9 11 14 16 17 19 20 21 22 22 23 24 27 27 27 26
7 4 5 3 8 8 4 4 0 1 3 3 3 2 4 4 3 6 10 15 20 19 15 11 9 7 6 7 6 8 12 12 13 16 18 20 21 21 22 22 24 25 25 27
3 4 5 2 2 1 3 5 9 3 4 3 4 3 4 1 3 5 8 13 16 14 10 7 5 3 2 1 3 5 8 10 13 15 17 19 21 22 19 19 20 22 24 24
10 4 4 4 4 4 7 9 3 1 1 8 4 2 3 2 5 8 10 12 11 9 7 7 6 4 3 3 4 6 9 12 15 17 18 19 20 20 20 20 21 22 23 23
6 3 3 5 3 5 5 8 4 2 4 6 11 6 7 5 7 10 11 11 11 11 9 7 6 5 4 3 6 8 11 14 17 17 16 17 22 24 24 25 26 27 27 27
3 3 2 2 2 3 3 7 15 10 9 9 3 9 5 10 10 11 13 14 13 11 9 7 5 4 4 6 8 10 12 14 16 16 17 19 22 24 25 26 29 29 30 28
2 2 4 3 2 5 7 10 13 17 17 17 15 11 6 13 12 15 15 14 12 10 8 7 4 4 5 7 8 10 12 15 16 17 19 20 22 24 24 26 27 28 29 30
6 6 4 3 2 3 8 19 19 10 11 14 12 11 14 12 15 16 15 13 12 10 7 5 4 4 5 7 10 12 14 16 18 19 20 22 23 25 26 27 28 29 30 30
7 6 1 2 4 4 2 2 4 18 9 15 6 5 11 11 12 12 12 13 11 9 7 5 3 3 5 8 10 13 15 17 19 20 21 22 24 26 27 28 29 30 30 30
3 4 2 3 5 7 6 5 4 7 3 16 13 10 12 15 14 10 12 11 9 8 6 4 2 3 6 9 13 15 17 19 20 20 21 23 24 26 27 28 29 29 30 31
5 1 3 3 3 4 3 4 4 3 5 4 14 15 19 19 8 8 14 11 9 7 5 2 3 6 8 11 14 17 20 21 20 21 22 23 24 25 27 27 29 30 31 33
4 2 5 4 4 5 4 5 7 4 2 8 12 16 19 15 2 15 14 11 8 6 3 2 5 8 12 15 17 20 21 21 21 21 22 23 24 26 26 28 30 32 33 34
8 8 4 4 4 7 10 8 4 3 6 9 12 16 17 11 13 14 11 9 6 3 2 5 9 13 16 18 20 22 21 21 20 21 22 23 24 26 29 31 32 31 33 34
5 4 3 7 1 4 6 3 2 3 9 10 12 14 14 14 12 11 8 6 4 2 5 9 13 17 19 20 21 22 22 21 21 22 23 24 26 28 30 31 32 34 33 35
6 6 3 3 5 4 2 2 3 7 10 13 14 15 13 11 10 8 6 3 2 5 8 13 17 20 21 20 20 20 21 21 22 23 25 26 28 29 30 31 31 32 34 33
2 11 6 2 4 4 2 5 10 14 16 16 14 12 11 11 8 5 3 1 5 9 13 16 19 21 21 21 21 21 21 21 22 24 26 27 28 29 31 31 32 34 33 31
9 6 5 1 8 2 13 14 15 16 15 13 13 12 10 8 6 4 1 5 10 13 17 18 20 21 22 21 21 21 21 21 24 25 26 28 29 30 31 33 34 36 36 36
Wind_Direction
104 137 142 115 4 96 130 131 120 106 107 147 123 148 163 172 184 176 163 158 160 147 122 98 88 59 54 48 45 45 41 40 40 36 38 32 29 25 21 19 18 18 18 17
132 118 101 97 129 131 129 124 113 96 97 345 145 164 173 184 195 193 189 186 181 169 166 177 163 85 56 48 44 42 39 36 37 32 31 37 38 27 21 12 8 10 10 10
129 118 147 142 132 123 107 126 153 130 135 106 160 187 194 201 208 207 209 206 196 192 181 187 190 137 49 40 32 34 30 31 29 42 29 31 31 25 21 12 9 6 7 6
68 111 159 158 126 182 129 112 133 144 192 155 216 79 199 197 205 211 210 207 206 204 203 205 209 206 240 347 10 23 21 24 27 40 24 31 27 25 21 12 5 5 4 2
78 130 146 147 113 273 131 158 139 153 166 222 183 254 109 197 211 210 210 207 205 203 201 204 208 211 229 254 257 296 358 8 18 41 31 28 26 22 18 16 12 6 3 3
85 80 18 69 71 218 137 140 142 172 203 226 109 261 152 176 223 215 207 206 202 199 198 201 199 199 215 245 235 254 289 321 336 10 10 9 8 5 1 357 2 359 359 1
131 53 78 132 112 140 214 174 164 190 190 149 151 229 354 164 167 210 202 201 200 196 194 198 199 202 209 222 233 249 279 302 308 320 327 333 340 342 338 336 338 341 342 346
165 172 180 62 315 238 185 254 253 216 189 124 182 228 131 141 196 227 218 201 195 194 194 197 199 198 204 222 244 274 295 303 307 306 307 307 315 309 308 311 315 319 320 324
158 126 122 57 105 318 164 218 7 81 31 267 214 206 210 208 197 193 197 193 190 192 194 198 202 207 220 244 266 279 287 297 300 300 301 301 301 301 300 301 301 301 305 307
155 122 187 136 175 83 282 116 178 62 153 244 216 257 191 170 171 169 180 189 189 190 193 200 207 221 240 258 278 288 294 296 300 300 300 299 296 292 289 289 292 295 297 297
149 129 142 191 208 186 152 193 262 224 271 268 278 182 55 125 169 174 182 187 186 189 195 202 215 233 258 277 292 306 301 312 317 314 315 314 312 304 295 291 291 291 290 291
139 115 150 160 117 258 263 235 195 199 196 235 307 287 123 268 219 188 177 180 182 189 196 209 221 220 178 14 -0 348 326 324 320 321 319 318 316 313 313 308 303 299 296 294
175 152 123 158 186 198 216 194 90 88 224 209 207 215 129 160 183 179 168 169 178 185 175 147 129 117 90 48 9 354 325 324 323 323 323 321 320 320 320 318 314 311 308 305
163 165 201 202 120 123 187 184 198 178 190 222 233 239 182 160 152 160 164 167 159 149 141 130 111 88 57 356 341 345 334 328 326 328 334 329 322 320 319 316 314 312 309 308
240 165 135 134 121 195 215 196 186 201 211 223 303 234 208 176 165 163 157 153 149 142 132 120 100 71 30 2 358 345 340 336 335 337 337 333 327 323 320 317 313 311 309 309
162 174 179 167 174 235 253 220 210 218 236 246 256 255 183 169 161 157 160 159 155 146 132 115 92 52 21 6 358 352 347 341 340 336 332 328 326 323 322 319 318 315 313 310
161 152 182 183 166 241 273 235 210 207 207 223 235 254 171 183 182 174 166 165 160 148 133 115 87 45 13 358 351 346 341 336 332 328 325 324 324 322 321 320 318 317 315 313
159 143 72 129 145 224 76 72 246 221 238 219 245 183 186 181 163 160 164 163 155 147 134 115 85 29 356 348 342 338 332 327 324 322 321 323 322 320 319 317 316 314 314 311
176 145 132 178 212 312 204 201 186 186 247 215 211 177 151 144 143 150 159 158 156 148 136 123 69 4 341 335 333 332 328 321 320 319 320 320 321 320 320 318 317 316 314 311
106 100 228 181 211 238 84 146 186 187 252 171 181 172 161 161 196 162 167 155 151 144 140 131 345 335 328 328 330 327 323 321 319 318 320 321 320 320 319 319 319 317 315 312
155 160 209 196 237 277 127 148 162 220 50 150 167 170 168 181 68 142 156 154 156 164 172 325 326 322 322 323 323 322 320 318 316 317 318 319 319 319 318 317 315 313 312 310
172 165 188 178 207 251 156 146 229 54 124 145 157 165 164 139 131 139 148 153 164 187 249 308 316 316 318 318 318 318 317 314 314 316 317 318 319 319 319 317 316 315 313 309
207 214 199 206 212 97 156 87 111 130 144 141 143 152 157 143 141 148 147 160 188 228 306 313 314 314 314 311 312 313 314 314 315 316 316 317 318 320 319 319 317 315 312 309
205 186 224 184 164 159 175 197 146 140 139 134 132 133 136 135 144 142 148 181 254 301 311 314 313 312 311 309 310 312 313 314 314 315 315 318 319 317 320 318 314 310 309 309
133 164 181 195 171 139 151 154 145 127 125 123 120 120 124 129 133 139 142 245 298 310 315 314 313 311 311 311 311 313 312 313 314 315 317 318 318 318 319 317 314 308 305 304
187 173 195 220 156 120 152 147 136 128 126 123 120 112 106 115 114 103 10 315 314 315 317 316 315 313 312 310 309 312 312 313 315 315 317 316 316 318 318 315 314 311 310 311